Terminal Aerodrome Forecast
Issued by NWS

Home | Current Version | Previous Version | Graphics & Text | Print | Product List | Glossary Off
Versions: 1 2 3 4 5 6 7 8 9 10 11 12 13 14 15 16 17 18 19 20

000
FTUS43 KDDC 242343 RRA
TAFGCK
TAF
KGCK 242343Z 2500/2524 VRB06KT P6SM SKC
     FM251700 14012G17KT P6SM SKC
     FM252300 15011KT P6SM SCT250=

USA.gov is the U.S. government's official web portal to all federal, state and local government web resources and services.